Regional Weather Roundup
Issued by NWS

Home | Current Version | Previous Version | Graphics & Text | Print | Product List | Glossary On
Versions: 1 2 3 4 5 6 7 8 9 10 11 12 13 14 15 16 17 18 19 20 21 22 23 24 25 26 27 28 29 30 31 32 33 34 35 36 37 38 39 40 41 42 43 44 45 46 47 48 49 50
617
ASUS43 KLSX 071107
RWRMO

WEATHER SUMMARY FOR MISSOURI
NATIONAL WEATHER SERVICE SPRINGFIELD MO
500 AM CST SUN FEB 07 2016

NOTE: "FAIR" INDICATES FEW OR NO CLOUDS BELOW 12,000 FEET WITH NO
       SIGNIFICANT WEATHER AND/OR OBSTRUCTIONS TO VISIBILITY.
       CURRENT SKY AND/OR WEATHER CONDITIONS ARE NOT AVAILABLE FOR
       CHILLICOTHE AND FARMINGTON.

MOZ001>031-035>038-043-044-053-054-071200-
...NORTHERN AND WESTERN MISSOURI...

CITY           SKY/WX    TMP DP  RH WIND       PRES   REMARKS
KANSAS CTY INT PTCLDY    38  27  64 SW14      29.97F WCI  30
KANSAS C DTWN  CLOUDY    41  27  57 SW12      29.99S
LEE`S SUMMIT   CLEAR     38  27  64 SW16      29.99S WCI  29
ST JOSEPH      CLEAR     34  26  72 SW8       29.97S WCI  27
CHILLICOTHE      N/A     37  27  67 SW6       29.96F
KIRKSVILLE     CLOUDY    38  26  62 SW14G22   29.93F WCI  30

$$
MOZ066>068-077>081-088>096-101>105-071200-
...SOUTHWEST MISSOURI...

CITY           SKY/WX    TMP DP  RH WIND       PRES   REMARKS
SPRINGFIELD    CLEAR     33  26  75 S10       30.09F WCI  25
JOPLIN         CLOUDY    40  29  64 SW15      30.09F

$$
MOZ032>034-039>042-045>050-055>058-069>072-071200-
...CENTRAL MISSOURI...

CITY           SKY/WX    TMP DP  RH WIND       PRES   REMARKS
COLUMBIA       CLOUDY    36  28  73 SW12      30.03F WCI  28
JEFFERSON CITY CLOUDY    38  28  67 CALM      30.06F
ROLLA          PTCLDY    36  26  67 S13       30.05F WCI  27
SEDALIA        CLEAR     40  27  59 SW16G24   30.02F
WHITEMAN AFB   CLEAR     36  28  75 SW16      29.98F WCI  26
WARRENSBURG    PTCLDY    37  28  70 S13G20    29.99F WCI  29
OSAGE BEACH    CLEAR     39  25  56 SW10      30.06F

$$
MOZ051-052-059>065-071200-
...EAST CENTRAL MISSOURI...

CITY           SKY/WX    TMP DP  RH WIND       PRES   REMARKS
ST LOUIS INTL  CLOUDY    42  22  44 SW12      30.06F
SPIRIT OF STL  PTCLDY    42  25  50 SW9       30.05F
ST CHARLES     MOCLDY    36  26  67 S6        30.05F

$$
MOZ072>076-082>087-097>100-106>115-071200-
...SOUTH CENTRAL AND SOUTHEAST MISSOURI...

CITY           SKY/WX    TMP DP  RH WIND       PRES   REMARKS
CAPE GIRARDEAU PTCLDY    33  22  63 SW5       30.18F WCI  29
FARMINGTON     CLEAR     35  20  54 S9        30.11F WCI  28
POPLAR BLUFF   CLOUDY    33  23  66 SW5       30.19F WCI  29
WEST PLAINS    PTCLDY    36  18  48 SW8       30.14F WCI  30

$$



USA.gov is the U.S. government's official web portal to all federal, state and local government web resources and services.